Richmond Hanover County, VA

9:54 PM EDT on August 17, 2017 (GMT -0400)
Hanover County Municipal

Weather History for KOFP - October, 2013

Change the Weather History Date:

Monday, October 14, 2013

  Actual Average Record
Temperature  
Mean Temperature 60 °F -  
Max Temperature 69 °F 70 °F 92 °F (1954)
Min Temperature 51 °F 48 °F 27 °F (1988)
Degree Days  
Heating Degree Days 6    
Growing Degree Days 10 (Base 50)    
Moisture  
Dew Point 55 °F    
Average Humidity 91    
Maximum Humidity 100    
Minimum Humidity 63    
Precipitation  
Precipitation 0.01 in - - ()
Sea Level Pressure  
Sea Level Pressure 30.27 in    
Wind  
Wind Speed 3 mph (NNE)    
Max Wind Speed 7 mph    
Max Gust Speed -    
Visibility 5 miles    
Events      
Averages and records for this station are not official NWS values.
T = Trace of Precipitation, MM = Missing Value Source: NWS Daily Summary

Daily Weather History Graph

Daily Weather History Graph

Search for Another Location

Airport or City:

Trip Planner

Search our weather history database for the weather conditions in past years. The results will help you decide how hot, cold, wet, or windy it might be!

Date:

Astronomy

Oct. 14, 2013 Rise Set
Actual Time 7:17 AM EDT 6:33 PM EDT
Civil Twilight 6:50 AM EDT 6:59 PM EDT
Nautical Twilight 6:20 AM EDT 7:30 PM EDT
Astronomical Twilight 5:50 AM EDT 8:00 PM EDT
Moon 3:57 PM EDT (10/14) 2:36 AM EDT (10/14)
Length of Visible Light 12h 08m
Length of Day
11h 16m
Waxing Gibbous, 79% of the Moon is Illuminated
Oct 14
Waxing Gibbous
Oct 18
Full
Oct 26
Last Quarter
Nov 3
New
Nov 10
First Quarter

Hourly Weather History & Observations

Time (EDT) Temp. Dew Point Humidity Pressure Visibility Wind Dir Wind Speed Gust Speed Precip Events Conditions
12:54 AM 60.1 °F 57.9 °F 93% 30.28 in 7.0 mi Variable 4.6 mph - N/A   Overcast
1:07 AM 60.8 °F 57.2 °F 88% 30.28 in 7.0 mi NNE 4.6 mph - N/A   Overcast
1:28 AM 60.8 °F 57.2 °F 88% 30.28 in 8.0 mi Variable 3.5 mph - N/A   Overcast
1:54 AM 60.1 °F 57.9 °F 93% 30.27 in 8.0 mi Variable 3.5 mph - N/A   Overcast
2:27 AM 60.8 °F 57.2 °F 88% 30.28 in 8.0 mi Variable 3.5 mph - N/A   Overcast
2:46 AM 60.8 °F 57.2 °F 88% 30.27 in 7.0 mi North 3.5 mph - N/A   Overcast
2:54 AM 60.1 °F 57.0 °F 90% 30.27 in 7.0 mi Variable 3.5 mph - N/A   Overcast
3:28 AM 59.0 °F 57.2 °F 94% 30.28 in 8.0 mi Variable 3.5 mph - N/A   Overcast
3:54 AM 59.0 °F 57.0 °F 93% 30.28 in 8.0 mi Variable 4.6 mph - N/A   Overcast
4:54 AM 59.0 °F 57.0 °F 93% 30.28 in 8.0 mi Variable 5.8 mph - N/A   Overcast
5:04 AM 59.0 °F 57.2 °F 94% 30.29 in 8.0 mi Variable 3.5 mph - N/A   Overcast
5:54 AM 57.9 °F 57.0 °F 97% 30.30 in 5.0 mi Variable 3.5 mph - N/A   Overcast
6:54 AM 57.9 °F 55.9 °F 93% 30.30 in 8.0 mi NNE 4.6 mph - N/A   Overcast
7:06 AM 57.2 °F 55.4 °F 94% 30.30 in 8.0 mi Variable 3.5 mph - N/A   Overcast
7:50 AM 57.2 °F 55.4 °F 94% 30.30 in 7.0 mi Variable 4.6 mph - N/A   Overcast
7:54 AM 57.9 °F 55.9 °F 93% 30.30 in 7.0 mi Variable 3.5 mph - N/A   Overcast
8:54 AM 59.0 °F 55.9 °F 90% 30.32 in 7.0 mi North 4.6 mph - N/A   Overcast
9:54 AM 60.1 °F 57.0 °F 90% 30.32 in 8.0 mi Variable 4.6 mph - N/A   Overcast
10:54 AM 61.0 °F 57.0 °F 87% 30.31 in 9.0 mi NNW 5.8 mph - N/A   Overcast
11:26 AM 62.6 °F 55.4 °F 77% 30.31 in 10.0 mi Variable 3.5 mph - N/A   Overcast
11:54 AM 62.1 °F 55.9 °F 80% 30.30 in 10.0 mi Variable 6.9 mph - N/A   Overcast
12:54 PM 64.0 °F 55.9 °F 75% 30.28 in 10.0 mi Variable 4.6 mph - N/A   Overcast
1:54 PM 64.9 °F 55.9 °F 73% 30.27 in 10.0 mi NNE 3.5 mph - N/A   Overcast
2:36 PM 66.2 °F 55.4 °F 68% 30.26 in 10.0 mi Variable 6.9 mph - N/A   Overcast
2:54 PM 66.9 °F 55.0 °F 66% 30.25 in 10.0 mi Variable 6.9 mph - N/A   Mostly Cloudy
3:54 PM 68.0 °F 55.0 °F 63% 30.24 in 10.0 mi Variable 6.9 mph - 0.01 in   Scattered Clouds
4:54 PM 66.9 °F 55.0 °F 66% 30.23 in 10.0 mi NE 3.5 mph - N/A   Partly Cloudy
5:54 PM 64.9 °F 55.0 °F 70% 30.24 in 10.0 mi Calm Calm - N/A   Clear
6:54 PM 59.0 °F 57.0 °F 93% 30.25 in 9.0 mi Calm Calm - N/A   Clear
7:54 PM 55.9 °F 55.0 °F 97% 30.25 in 5.0 mi Calm Calm - N/A   Clear
8:54 PM 55.0 °F 54.0 °F 96% 30.26 in 4.0 mi Calm Calm - N/A   Clear
9:06 PM 55.4 °F 53.6 °F 94% 30.26 in 2.5 mi Calm Calm - N/A   Clear
9:23 PM 53.6 °F 53.6 °F 100% 30.26 in 1.5 mi Calm Calm - N/A   Partly Cloudy
9:37 PM 53.6 °F 53.6 °F 100% 30.26 in 3.0 mi Calm Calm - N/A   Clear
9:44 PM 53.6 °F 53.6 °F 100% 30.25 in 1.8 mi Calm Calm - N/A   Clear
9:49 PM 53.6 °F 53.6 °F 100% 30.25 in 1.0 mi Calm Calm - N/A   Mist
9:54 PM 54.0 °F 53.1 °F 97% 30.25 in 1.0 mi Calm Calm - N/A   Mist
10:01 PM 53.6 °F 53.6 °F 100% 30.26 in 1.2 mi Calm Calm - N/A   Partly Cloudy
10:07 PM 53.6 °F 53.6 °F 100% 30.26 in 0.8 mi Calm Calm - N/A   Mist
10:12 PM 53.6 °F 53.6 °F 100% 30.26 in 1.2 mi Calm Calm - N/A   Partly Cloudy
10:16 PM 53.6 °F 53.6 °F 100% 30.26 in 2.0 mi Calm Calm - N/A   Partly Cloudy
10:24 PM 53.6 °F 53.6 °F 100% 30.26 in 4.0 mi Calm Calm - N/A   Clear
10:30 PM 53.6 °F 53.6 °F 100% 30.26 in 1.5 mi Calm Calm - N/A   Partly Cloudy
10:33 PM 53.6 °F 53.6 °F 100% 30.26 in 1.0 mi Calm Calm - N/A   Mist
10:36 PM 53.6 °F 51.8 °F 94% 30.26 in 0.8 mi Calm Calm - N/A   Mist
10:41 PM 53.6 °F 51.8 °F 94% 30.26 in 1.2 mi Calm Calm - N/A   Partly Cloudy
10:47 PM 53.6 °F 51.8 °F 94% 30.26 in 0.8 mi Calm Calm - N/A   Mist
10:54 PM 52.0 °F 52.0 °F 100% 30.26 in 0.8 mi Calm Calm - N/A   Mist
10:58 PM 53.6 °F 51.8 °F 94% 30.26 in 1.2 mi Calm Calm - N/A   Scattered Clouds
11:04 PM 53.6 °F 51.8 °F 94% 30.26 in 2.0 mi Calm Calm - N/A   Partly Cloudy
11:16 PM 53.6 °F 51.8 °F 94% 30.26 in 1.2 mi Calm Calm - N/A   Partly Cloudy
11:18 PM 51.8 °F 51.8 °F 100% 30.26 in 0.8 mi Calm Calm - N/A   Mist
11:36 PM 51.8 °F 51.8 °F 100% 30.25 in 1.2 mi Calm Calm - N/A   Scattered Clouds
11:43 PM 51.8 °F 51.8 °F 100% 30.25 in 2.0 mi Calm Calm - N/A   Scattered Clouds
11:50 PM 51.8 °F 51.8 °F 100% 30.24 in 1.2 mi Calm Calm - N/A   Partly Cloudy
11:54 PM 52.0 °F 51.1 °F 97% 30.24 in 0.8 mi Calm Calm - N/A   Mist